GW3932 Weather Reports


Display with metric or nautical units.
time (UTC)temp
F
wind
direction
speed
MPH
gust
MPH
rain 1hr
in
rain 24hr
in
rain mn
in
humidity
%
barometer
mb
20231208051705 82 224 5.0 10.0 0.00 0.00 0.00 37 1016.8
20231208051205 82 237 3.0 13.0 0.00 0.00 0.00 38 1016.9
20231208050705 83 227 6.0 12.0 0.00 0.00 0.00 36 1016.8
20231208050205 83 209 3.0 12.0 0.00 0.00 0.00 34 1016.8
20231208044205 83 275 2.0 5.0 0.00 0.00 0.00 30 1017.0
20231208043705 83 208 2.0 8.0 0.00 0.00 0.00 30 1017.0
20231208043205 82 202 3.0 9.0 0.00 0.00 0.00 31 1017.0
20231208041705 81 215 3.0 6.0 0.00 0.00 0.00 33 1017.0
20231208041205 81 259 3.0 8.0 0.00 0.00 0.00 31 1017.1
20231208040705 81 245 3.0 7.0 0.00 0.00 0.00 33 1017.1
20231208040206 81 254 4.0 9.0 0.00 0.00 0.00 32 1017.1
20231208034705 81 237 2.0 3.0 0.00 0.00 0.00 35 1017.3
20231208034206 80 84 2.0 5.0 0.00 0.00 0.00 34 1017.3
20231208033705 80 240 3.0 8.0 0.00 0.00 0.00 35 1017.5
20231208033205 80 217 2.0 9.0 0.00 0.00 0.00 35 1017.5
20231208031705 80 225 4.0 9.0 0.00 0.00 0.00 36 1017.6
20231208031206 80 141 2.0 7.0 0.00 0.00 0.00 35 1017.7
20231208030705 79 251 2.0 6.0 0.00 0.00 0.00 37 1017.7
20231208024704 78 207 3.0 8.0 0.00 0.00 0.00 38 1017.9
20231208024205 78 184 3.0 8.0 0.00 0.00 0.00 39 1017.8
20231208023205 78 232 3.0 8.0 0.00 0.00 0.00 38 1017.7
20231208021706 77 231 2.0 6.0 0.00 0.00 0.00 41 1017.7
20231208021210 77 228 1.0 3.0 0.00 0.00 0.00 41 1017.8
20231208020711 76 260 2.0 3.0 0.00 0.00 0.00 41 1017.8
20231208020215 76 195 2.0 10.0 0.00 0.00 0.00 42 1017.8
20231208014705 76 239 3.0 8.0 0.00 0.00 0.00 42 1017.9
20231208014205 76 256 1.0 3.0 0.00 0.00 0.00 43 1017.9
20231208013704 76 330 1.0 3.0 0.00 0.00 0.00 43 1018.0
20231208013204 76 201 2.0 6.0 0.00 0.00 0.00 45 1018.0
20231208011705 74 37 2.0 3.0 0.00 0.00 0.00 45 1018.2
20231208011205 74 131 0.0 5.0 0.00 0.00 0.00 47 1018.1
20231208010705 74 212 2.0 3.0 0.00 0.00 0.00 48 1018.3
20231208010205 73 116 1.0 8.0 0.00 0.00 0.00 47 1018.3
20231208004705 72 215 2.0 3.0 0.00 0.00 0.00 50 1018.4
20231208004204 72 197 2.0 7.0 0.00 0.00 0.00 53 1018.5
20231208003705 71 228 3.0 5.0 0.00 0.00 0.00 54 1018.4
20231208001205 69 118 2.0 6.0 0.00 0.00 0.00 57 1018.3
20231208000705 68 221 2.0 6.0 0.00 0.00 0.00 58 1018.4
20231208000204 68 230 2.0 8.0 0.00 0.00 0.00 58 1018.2
20231207234706 67 91 1.0 3.0 0.00 0.00 0.00 60 1018.2
20231207234206 67 225 1.0 7.0 0.00 0.00 0.00 61 1018.3
20231207233706 66 208 2.0 8.0 0.00 0.00 0.00 61 1018.3
20231207233206 66 220 2.0 5.0 0.00 0.00 0.00 62 1018.4
20231207231706 64 226 1.0 3.0 0.00 0.00 0.00 65 1018.3
20231207231206 63 153 1.0 7.0 0.00 0.00 0.00 66 1018.3
20231207230706 63 231 1.0 2.0 0.00 0.00 0.00 68 1018.3
20231207230206 62 229 2.0 5.0 0.00 0.00 0.00 68 1018.0
20231207224706 60 227 1.0 3.0 0.00 0.00 0.00 72 1017.9
20231207224206 59 204 0.0 3.0 0.00 0.00 0.00 73 1017.9
20231207223706 59 124 0.0 0.0 0.00 0.00 0.00 73 1017.8
20231207221706 58 223 0.0 0.0 0.00 0.00 0.00 72 1017.4
20231207221206 58 223 0.0 0.0 0.00 0.00 0.00 72 1017.3
20231207220706 58 223 0.0 0.0 0.00 0.00 0.00 71 1017.3
20231207220206 58 223 0.0 0.0 0.00 0.00 0.00 71 1017.2
20231207214706 59 223 0.0 0.0 0.00 0.00 0.00 70 1017.0
20231207213206 59 223 0.0 1.0 0.00 0.00 0.00 69 1016.8
20231207211206 59 222 0.0 2.0 0.00 0.00 0.00 69 1016.3
20231207210706 59 221 0.0 0.0 0.00 0.00 0.00 69 1016.2
20231207204706 60 196 0.0 1.0 0.00 0.00 0.00 68 1015.9
20231207204205 60 217 1.0 3.0 0.00 0.00 0.00 68 1015.8
20231207203706 60 107 0.0 3.0 0.00 0.00 0.00 68 1015.7
20231207201706 60 202 0.0 2.0 0.00 0.00 0.00 66 1015.3
20231207201206 60 251 0.0 2.0 0.00 0.00 0.00 66 1015.3
20231207200706 60 251 0.0 0.0 0.00 0.00 0.00 66 1015.2
20231207200206 60 251 0.0 3.0 0.00 0.00 0.00 66 1015.1
20231207194706 61 245 0.0 1.0 0.00 0.00 0.00 65 1015.0
20231207194205 61 245 0.0 0.0 0.00 0.00 0.00 64 1014.9
20231207193706 61 245 0.0 0.0 0.00 0.00 0.00 64 1014.9
20231207193206 61 245 0.0 1.0 0.00 0.00 0.00 64 1014.8
20231207191206 62 245 0.0 1.0 0.00 0.00 0.00 64 1014.8
20231207190706 62 245 0.0 1.0 0.00 0.00 0.00 63 1014.8
20231207190206 62 245 0.0 2.0 0.00 0.00 0.00 63 1014.8
20231207184706 62 244 0.0 3.0 0.00 0.00 0.00 63 1014.7
20231207184205 62 242 0.0 3.0 0.00 0.00 0.00 63 1014.7
20231207183706 62 242 1.0 2.0 0.00 0.00 0.00 63 1014.7
20231207181706 62 198 0.0 1.0 0.00 0.00 0.00 63 1014.7
20231207181206 62 197 0.0 1.0 0.00 0.00 0.00 63 1014.6
20231207180705 62 198 0.0 3.0 0.00 0.00 0.00 63 1014.6
20231207180206 62 251 0.0 2.0 0.00 0.00 0.00 63 1014.6
20231207174706 63 250 0.0 2.0 0.00 0.00 0.00 63 1014.5
20231207174206 63 251 0.0 1.0 0.00 0.00 0.00 63 1014.4
20231207173706 63 251 0.0 2.0 0.00 0.00 0.00 63 1014.4
20231207173205 63 250 0.0 3.0 0.00 0.00 0.00 63 1014.4
20231207171705 63 286 1.0 3.0 0.00 0.00 0.00 63 1014.4
20231207171205 63 228 1.0 3.0 0.00 0.00 0.00 63 1014.3
20231207170206 63 160 0.0 3.0 0.00 0.00 0.00 63 1014.2
20231207164706 64 173 1.0 2.0 0.00 0.00 0.00 63 1014.2
20231207164205 64 167 0.0 1.0 0.00 0.00 0.00 63 1014.2
20231207163705 64 167 0.0 3.0 0.00 0.00 0.00 62 1014.2
20231207163205 64 167 1.0 3.0 0.00 0.00 0.00 62 1014.2
20231207161705 65 108 0.0 2.0 0.00 0.00 0.00 61 1014.1
20231207161206 65 248 0.0 2.0 0.00 0.00 0.00 61 1014.0
20231207160706 65 244 0.0 3.0 0.00 0.00 0.00 60 1014.0
20231207160206 65 227 1.0 3.0 0.00 0.00 0.00 60 1014.0
20231207154706 66 276 1.0 3.0 0.00 0.00 0.00 59 1013.9
20231207153205 66 130 1.0 3.0 0.00 0.00 0.00 58 1013.8
20231207151206 67 211 1.0 2.0 0.00 0.00 0.00 58 1013.7
20231207150205 67 230 1.0 3.0 0.00 0.00 0.00 57 1013.7
20231207144707 68 238 1.0 3.0 0.00 0.00 0.00 58 1013.7
20231207144206 68 171 1.0 2.0 0.00 0.00 0.00 57 1013.7
20231207143705 68 225 1.0 3.0 0.00 0.00 0.00 57 1013.7
20231207143206 68 219 1.0 3.0 0.00 0.00 0.00 57 1013.7
20231207141706 68 188 1.0 6.0 0.00 0.00 0.00 57 1013.6
20231207141206 68 205 1.0 5.0 0.00 0.00 0.00 57 1013.6
20231207140705 68 223 1.0 5.0 0.00 0.00 0.00 58 1013.6
20231207134706 69 196 1.0 2.0 0.00 0.00 0.00 60 1013.3
20231207134205 69 187 1.0 2.0 0.00 0.00 0.00 60 1013.3
20231207133206 69 217 1.0 3.0 0.00 0.00 0.00 61 1013.1
20231207131206 69 200 2.0 3.0 0.00 0.00 0.00 61 1012.6
20231207130705 69 211 1.0 2.0 0.00 0.00 0.00 60 1012.6
20231207130206 69 234 2.0 6.0 0.00 0.00 0.00 60 1012.5
20231207124706 69 110 1.0 3.0 0.00 0.00 0.00 60 1012.4
20231207124205 69 209 1.0 3.0 0.00 0.00 0.00 59 1012.4
20231207123705 70 227 1.0 3.0 0.00 0.00 0.00 59 1012.4
20231207123206 70 240 1.0 5.0 0.00 0.00 0.00 59 1012.4
20231207121206 70 179 0.0 2.0 0.00 0.00 0.00 60 1012.4
20231207120706 70 181 1.0 3.0 0.00 0.00 0.00 60 1012.3
20231207120206 70 215 2.0 7.0 0.00 0.00 0.00 61 1012.3
20231207114706 70 227 2.0 5.0 0.00 0.00 0.00 61 1012.2
20231207114205 70 244 2.0 8.0 0.00 0.00 0.00 61 1012.1
20231207113706 70 252 1.0 3.0 0.00 0.00 0.00 61 1012.1
20231207110705 71 235 3.0 12.0 0.00 0.00 0.00 63 1011.7
20231207110206 71 229 3.0 9.0 0.00 0.00 0.00 63 1011.6
20231207104706 72 235 3.0 7.0 0.00 0.00 0.00 61 1011.4
20231207104206 73 228 4.0 9.0 0.00 0.00 0.00 61 1011.4
20231207103205 73 233 2.0 9.0 0.00 0.00 0.00 60 1011.2
20231207101705 74 231 3.0 12.0 0.00 0.00 0.00 58 1011.0
20231207101206 75 219 2.0 7.0 0.00 0.00 0.00 57 1011.0
20231207100706 75 223 3.0 9.0 0.00 0.00 0.00 57 1010.9
20231207100205 75 238 3.0 8.0 0.00 0.00 0.00 56 1011.0
20231207093705 78 229 2.0 6.0 0.00 0.00 0.00 52 1010.7
20231207093206 78 204 3.0 9.0 0.00 0.00 0.00 51 1010.6
20231207091706 77 225 3.0 10.0 0.00 0.00 0.00 53 1010.4
20231207091206 77 255 3.0 9.0 0.00 0.00 0.00 53 1010.6
20231207090706 77 222 2.0 12.0 0.00 0.00 0.00 54 1010.6
20231207090205 77 239 3.0 9.0 0.00 0.00 0.00 54 1010.5
20231207084705 77 212 3.0 9.0 0.00 0.00 0.00 53 1010.5
20231207084205 77 205 3.0 9.0 0.00 0.00 0.00 53 1010.5
20231207083705 77 206 3.0 9.0 0.00 0.00 0.00 53 1010.4
20231207083205 77 203 3.0 10.0 0.00 0.00 0.00 53 1010.4
20231207081705 77 225 5.0 10.0 0.00 0.00 0.00 53 1010.4
20231207081206 78 219 6.0 12.0 0.00 0.00 0.00 52 1010.5
20231207080705 78 219 5.0 10.0 0.00 0.00 0.00 52 1010.4
20231207080205 78 221 5.0 13.0 0.00 0.00 0.00 52 1010.4
20231207074705 79 241 4.0 10.0 0.00 0.00 0.00 51 1010.4
20231207074206 79 207 3.0 10.0 0.00 0.00 0.00 50 1010.3
20231207073705 80 221 6.0 14.0 0.00 0.00 0.00 49 1010.3
20231207073204 81 229 5.0 15.0 0.00 0.00 0.00 47 1010.2
20231207071705 83 241 6.0 14.0 0.00 0.00 0.00 45 1009.8
20231207071205 84 235 6.0 14.0 0.00 0.00 0.00 44 1009.8
20231207070705 84 243 3.0 10.0 0.00 0.00 0.00 44 1009.8
20231207070206 84 215 4.0 12.0 0.00 0.00 0.00 44 1009.9
20231207064705 84 240 4.0 9.0 0.00 0.00 0.00 45 1009.6
20231207064206 84 229 4.0 10.0 0.00 0.00 0.00 44 1009.6
20231207063705 84 204 3.0 9.0 0.00 0.00 0.00 45 1009.6
20231207063206 83 181 3.0 13.0 0.00 0.00 0.00 46 1009.6
20231207061705 83 206 5.0 10.0 0.00 0.00 0.00 45 1009.8
20231207061205 83 226 6.0 12.0 0.00 0.00 0.00 45 1009.9
20231207060705 83 217 5.0 10.0 0.00 0.00 0.00 45 1010.0
20231207054705 84 225 4.0 13.0 0.00 0.00 0.00 44 1009.9
20231207054205 84 214 5.0 13.0 0.00 0.00 0.00 44 1009.9
20231207053705 84 237 4.0 12.0 0.00 0.00 0.00 44 1009.9
20231207053206 84 215 2.0 10.0 0.00 0.00 0.00 43 1010.0